Omaha, Nebraska, United States (68101)
Lat: 41.26N, Lon: 95.94W
Wx Zone: NEZ052
Local Info
Past Weather Observations for Today

NOTE: This archive is for the closest National Weather Service station to Omaha. Information may differ from the station used for current weather conditions.

Click here for Long-term Archive

Time Weather Temperature Dewpoint Humidity Pressure Winds Precip Visibility
17:52
Overcast
27°F / -3°C 19°F / -7°C 74% 30.33 in
(1027 mb)
N 23 mph
(N 37 kph)
- 10SM
16:52
Overcast
28°F / -2°C 21°F / -6°C 74% 30.3 in
(1026 mb)
N 17.3 mph
(N 28 kph)
- 10SM
15:52
Overcast
28°F / -2°C 19°F / -7°C 69% 30.27 in
(1025 mb)
NNW 28.8 mph
(NNW 46 kph)
- 10SM
14:52
Overcast
28°F / -2°C 21°F / -6°C 74% 30.21 in
(1023 mb)
N 23 mph
(N 37 kph)
- 10SM
13:52
Overcast
28°F / -2°C 21°F / -6°C 74% 30.18 in
(1022 mb)
NNW 23 mph
(NNW 37 kph)
- 10SM
12:52
Overcast
30°F / -1°C 25°F / -4°C 80% 30.12 in
(1020 mb)
NNW 31.1 mph
(NNW 50 kph)
0.00 in
(0.00 mm)
10SM
11:52
Overcast
Light Snow
30°F / -1°C 27°F / -3°C 86% 30.09 in
(1019 mb)
NNW 32.2 mph
(NNW 52 kph)
0.00 in
(0.00 mm)
9SM
10:52
Overcast
Light Snow
34°F / 1°C 28°F / -2°C 81% 30.06 in
(1018 mb)
NNW 23 mph
(NNW 37 kph)
0.00 in
(0.00 mm)
7SM
10:03
Overcast
36°F / 2°C 28°F / -2°C 75% 30.01 in
(1016 mb)
N 27.6 mph
(N 44 kph)
- 7SM
09:52
Overcast
36°F / 2°C 30°F / -1°C 81% 30.01 in
(1016 mb)
N 27.6 mph
(N 44 kph)
0.00 in
(0.00 mm)
7SM
09:29
Overcast
Light Rain
37°F / 3°C 32°F / 0°C 81% 29.98 in
(1015 mb)
NNW 28.8 mph
(NNW 46 kph)
0.00 in
(0.00 mm)
7SM
08:52
Overcast
Light Rain
37°F / 3°C 34°F / 1°C 87% 29.95 in
(1014 mb)
NW 28.8 mph
(NW 46 kph)
0.00 in
(0.00 mm)
7SM
07:52
Overcast
Light Rain
37°F / 3°C 34°F / 1°C 87% 29.92 in
(1013 mb)
NW 24.2 mph
(NW 39 kph)
0.00 in
(0.00 mm)
7SM
06:52
Overcast
Light Rain
39°F / 4°C 34°F / 1°C 81% 29.89 in
(1012 mb)
NW 18.4 mph
(NW 30 kph)
0.00 in
(0.00 mm)
8SM
05:52
Overcast
39°F / 4°C 34°F / 1°C 81% 29.89 in
(1012 mb)
NW 17.3 mph
(NW 28 kph)
- 10SM
04:52
Overcast
39°F / 4°C 36°F / 2°C 87% 29.86 in
(1011 mb)
WNW 15 mph
(WNW 24 kph)
- 10SM
03:52
Overcast
39°F / 4°C 36°F / 2°C 87% 29.86 in
(1011 mb)
NW 9.2 mph
(NW 15 kph)
- 10SM
02:52
Overcast
37°F / 3°C 36°F / 2°C 93% 29.86 in
(1011 mb)
NW 10.4 mph
(NW 17 kph)
0.00 in
(0.00 mm)
10SM
02:35
Overcast
37°F / 3°C 36°F / 2°C 93% 29.83 in
(1010 mb)
SW 4.6 mph
(SW 7 kph)
0.00 in
(0.00 mm)
10SM
02:09
Overcast
36°F / 2°C 34°F / 1°C 93% 29.83 in
(1010 mb)
S 5.8 mph
(S 9 kph)
0.00 in
(0.00 mm)
10SM
01:52
Overcast
Drizzle
36°F / 2°C 34°F / 1°C 93% 29.83 in
(1010 mb)
S 5.8 mph
(S 9 kph)
0.02 in
(0.51 mm)
9SM
01:23
Overcast
Light Rain
36°F / 2°C 34°F / 1°C 93% 29.83 in
(1010 mb)
SE 8.1 mph
(SE 13 kph)
0.02 in
(0.51 mm)
7SM
01:08
Overcast
Fog And Mist
36°F / 2°C 34°F / 1°C 93% 29.83 in
(1010 mb)
S 11.5 mph
(S 19 kph)
0.01 in
(0.25 mm)
6SM
00:52
Overcast
Light Rain
37°F / 3°C 34°F / 1°C 87% 29.83 in
(1010 mb)
S 13.8 mph
(S 22 kph)
0.00 in
(0.00 mm)
6SM
00:33
Overcast
Light Rain
37°F / 3°C 32°F / 0°C 81% 29.86 in
(1011 mb)
S 11.5 mph
(S 19 kph)
0.00 in
(0.00 mm)
10SM
Time Weather Temperature Dewpoint Humidity Pressure Winds Precip Visibility


Weather for websites

WeatherForYou.com, LLC is not responsible for any damages or problems caused by this service. Current weather conditions are obtained from the closest station including government and personal stations which may have varying degrees of accuracy. Weather forecasts are derived from the NOAA NDFD. Like all things, this site belongs to Jesus Christ... He just trusts me to maintain it. If you have any questions or comments email webmaster@weatherforyou.com

Copyright © 2014, WeatherForYou.com LLC. All rights reserved.